Knoxville, IA

1:31 AM CDT on May 27, 2018 (GMT -0500)
Knoxville Municipal

Weather History for KOXV - June, 2013

Change the Weather History Date:

Friday, June 28, 2013

  Actual Average Record
Temperature  
Mean Temperature 76 °F -  
Max Temperature 84 °F 87 °F 98 °F (1963)
Min Temperature 68 °F 64 °F 53 °F (1968)
Cooling Degree Days 11    
Growing Degree Days 26 (Base 50)    
Moisture  
Dew Point 58 °F    
Average Humidity 56    
Maximum Humidity 83    
Minimum Humidity 33    
Precipitation  
Precipitation 0.00 in - - ()
Sea Level Pressure  
Sea Level Pressure 29.83 in    
Wind  
Wind Speed 12 mph (NW)    
Max Wind Speed 26 mph    
Max Gust Speed 40 mph    
Visibility 10 miles    
Events      
Averages and records for this station are not official NWS values.
T = Trace of Precipitation, MM = Missing Value Source: NWS Daily Summary

Daily Weather History Graph

Daily Weather History Graph

Search for Another Location

Airport or City:

Astronomy

Jun. 28, 2013 Rise Set
Actual Time 5:41 AM CDT 8:49 PM CDT
Civil Twilight 5:07 AM CDT 9:23 PM CDT
Nautical Twilight 4:24 AM CDT 10:06 PM CDT
Astronomical Twilight 3:33 AM CDT 10:58 PM CDT
Moon No Moon Rise 11:54 AM CDT (6/28)
Length of Visible Light 16h 15m
Length of Day
15h 07m
Waning Gibbous, 66% of the Moon is Illuminated
Jun 28
Waning Gibbous
Jun 29
Last Quarter
Jul 8
New
Jul 15
First Quarter
Jul 22
Full

Hourly Weather History & Observations

Time (CDT) Temp. Heat Index Dew Point Humidity Pressure Visibility Wind Dir Wind Speed Gust Speed Precip Events Conditions
12:15 AM 75.2 °F - 64.4 °F 69% 29.88 in 10.0 mi NW 11.5 mph - N/A   Clear
12:35 AM 73.4 °F - 64.4 °F 73% 29.88 in 10.0 mi NW 10.4 mph - N/A   Clear
12:55 AM 73.4 °F - 64.4 °F 73% 29.88 in 10.0 mi NW 9.2 mph - N/A   Clear
1:35 AM 69.8 °F - 64.4 °F 83% 29.87 in 10.0 mi West 6.9 mph - N/A   Clear
1:55 AM 69.8 °F - 64.4 °F 83% 29.87 in 10.0 mi WNW 5.8 mph - N/A   Clear
2:15 AM 69.8 °F - 64.4 °F 83% 29.87 in 10.0 mi West 8.1 mph - N/A   Clear
2:35 AM 69.8 °F - 62.6 °F 78% 29.87 in 10.0 mi West 8.1 mph - N/A   Clear
2:55 AM 69.8 °F - 62.6 °F 78% 29.87 in 10.0 mi West 8.1 mph - N/A   Clear
3:15 AM 68.0 °F - 62.6 °F 83% 29.86 in 10.0 mi West 8.1 mph - N/A   Clear
3:35 AM 68.0 °F - 62.6 °F 83% 29.86 in 10.0 mi West 8.1 mph - N/A   Clear
3:55 AM 68.0 °F - 62.6 °F 83% 29.85 in 10.0 mi NW 6.9 mph - N/A   Scattered Clouds
4:15 AM 68.0 °F - 62.6 °F 83% 29.85 in 10.0 mi WNW 6.9 mph - N/A   Partly Cloudy
4:35 AM 68.0 °F - 62.6 °F 83% 29.85 in 10.0 mi WNW 5.8 mph - N/A   Mostly Cloudy
4:55 AM 68.0 °F - 62.6 °F 83% 29.84 in 10.0 mi WNW 8.1 mph - N/A   Mostly Cloudy
5:15 AM 68.0 °F - 62.6 °F 83% 29.84 in 10.0 mi WNW 9.2 mph - N/A   Partly Cloudy
5:35 AM 68.0 °F - 62.6 °F 83% 29.85 in 10.0 mi NW 8.1 mph - N/A   Clear
5:55 AM 68.0 °F - 62.6 °F 83% 29.86 in 10.0 mi WNW 9.2 mph - N/A   Clear
6:15 AM 69.8 °F - 62.6 °F 78% 29.86 in 10.0 mi WNW 8.1 mph - N/A   Partly Cloudy
6:35 AM 69.8 °F - 62.6 °F 78% 29.87 in 10.0 mi NW 8.1 mph - N/A   Clear
6:55 AM 71.6 °F - 60.8 °F 69% 29.87 in 10.0 mi NW 11.5 mph - N/A   Clear
7:55 AM 73.4 °F - 59.0 °F 61% 29.89 in 10.0 mi NNW 10.4 mph - N/A   Clear
8:15 AM 73.4 °F - 59.0 °F 61% 29.89 in 10.0 mi NW 10.4 mph - N/A   Clear
8:35 AM 75.2 °F - 59.0 °F 57% 29.89 in 10.0 mi NW 9.2 mph - N/A   Clear
8:55 AM 75.2 °F - 59.0 °F 57% 29.89 in 10.0 mi NW 9.2 mph - N/A   Clear
9:15 AM 75.2 °F - 59.0 °F 57% 29.89 in 10.0 mi NW 11.5 mph - N/A   Clear
9:35 AM 77.0 °F - 59.0 °F 54% 29.88 in 10.0 mi NW 12.7 mph - N/A   Clear
9:55 AM 77.0 °F - 59.0 °F 54% 29.88 in 10.0 mi NW 13.8 mph - N/A   Clear
10:15 AM 78.8 °F - 59.0 °F 51% 29.88 in 10.0 mi NW 13.8 mph - N/A   Clear
10:35 AM 78.8 °F - 59.0 °F 51% 29.88 in 10.0 mi NW 19.6 mph 28.8 mph N/A   Clear
10:55 AM 78.8 °F - 57.2 °F 47% 29.87 in 10.0 mi NW 19.6 mph 27.6 mph N/A   Clear
11:15 AM 80.6 °F 80.8 °F 57.2 °F 45% 29.87 in 10.0 mi WNW 16.1 mph - N/A   Clear
11:35 AM 80.6 °F 80.5 °F 55.4 °F 42% 29.86 in 10.0 mi NW 17.3 mph 26.5 mph N/A   Clear
11:55 AM 80.6 °F 80.8 °F 57.2 °F 45% 29.86 in 10.0 mi NW 19.6 mph 27.6 mph N/A   Clear
12:15 PM 82.4 °F 82.0 °F 57.2 °F 42% 29.86 in 10.0 mi NW 23.0 mph 32.2 mph N/A   Clear
12:35 PM 82.4 °F 81.7 °F 55.4 °F 39% 29.86 in 10.0 mi NW 20.7 mph 29.9 mph N/A   Clear
12:55 PM 82.4 °F 81.7 °F 55.4 °F 39% 29.85 in 10.0 mi NW 21.9 mph 32.2 mph N/A   Clear
1:15 PM 82.4 °F 81.7 °F 55.4 °F 39% 29.84 in 10.0 mi WNW 25.3 mph 35.7 mph N/A   Partly Cloudy
1:35 PM 82.4 °F 81.7 °F 55.4 °F 39% 29.84 in 10.0 mi NW 19.6 mph 33.4 mph N/A   Partly Cloudy
1:55 PM 82.4 °F 81.7 °F 55.4 °F 39% 29.83 in 10.0 mi NW 26.5 mph 39.1 mph N/A   Partly Cloudy
2:15 PM 82.4 °F 81.4 °F 53.6 °F 37% 29.83 in 10.0 mi NW 18.4 mph 32.2 mph N/A   Partly Cloudy
2:35 PM 84.2 °F 83.0 °F 55.4 °F 37% 29.82 in 9.0 mi NW 24.2 mph 33.4 mph N/A   Partly Cloudy
2:55 PM 84.2 °F 83.0 °F 55.4 °F 37% 29.82 in 10.0 mi NW 20.7 mph 29.9 mph N/A   Scattered Clouds
3:15 PM 84.2 °F 82.8 °F 53.6 °F 35% 29.81 in 10.0 mi NW 25.3 mph 32.2 mph N/A   Scattered Clouds
3:35 PM 84.2 °F 83.0 °F 55.4 °F 37% 29.81 in 10.0 mi NW 21.9 mph 29.9 mph N/A   Partly Cloudy
3:55 PM 82.4 °F 81.4 °F 53.6 °F 37% 29.81 in 10.0 mi NW 18.4 mph 27.6 mph N/A   Scattered Clouds
4:15 PM 84.2 °F 82.8 °F 53.6 °F 35% 29.80 in 10.0 mi NW 26.5 mph - N/A   Scattered Clouds
4:35 PM 84.2 °F 82.8 °F 53.6 °F 35% 29.80 in 10.0 mi NNW 23.0 mph 31.1 mph N/A   Partly Cloudy
4:55 PM 84.2 °F - 51.8 °F 33% 29.80 in 10.0 mi NW 24.2 mph 40.3 mph N/A   Clear
5:15 PM 84.2 °F 82.8 °F 53.6 °F 35% 29.80 in 10.0 mi NNW 20.7 mph 32.2 mph N/A   Partly Cloudy
5:35 PM 84.2 °F 82.8 °F 53.6 °F 35% 29.79 in 10.0 mi NNW 17.3 mph 29.9 mph N/A   Partly Cloudy
5:55 PM 84.2 °F 82.8 °F 53.6 °F 35% 29.78 in 10.0 mi NW 20.7 mph 32.2 mph N/A   Partly Cloudy
6:15 PM 82.4 °F 81.4 °F 53.6 °F 37% 29.78 in 10.0 mi NW 19.6 mph 28.8 mph N/A   Scattered Clouds
6:35 PM 82.4 °F 81.4 °F 53.6 °F 37% 29.78 in 10.0 mi NNW 15.0 mph 32.2 mph N/A   Scattered Clouds
6:55 PM 82.4 °F 81.7 °F 55.4 °F 39% 29.77 in 10.0 mi NNW 13.8 mph - N/A   Partly Cloudy
7:15 PM 80.6 °F 80.5 °F 55.4 °F 42% 29.78 in 10.0 mi NNW 16.1 mph 24.2 mph N/A   Clear
7:35 PM 80.6 °F 80.5 °F 55.4 °F 42% 29.78 in 10.0 mi NNW 13.8 mph 25.3 mph N/A   Clear
7:55 PM 80.6 °F 80.8 °F 57.2 °F 45% 29.78 in 10.0 mi NNW 15.0 mph 21.9 mph N/A   Clear
8:15 PM 78.8 °F - 57.2 °F 47% 29.78 in 10.0 mi NNW 12.7 mph 18.4 mph N/A   Clear
8:35 PM 78.8 °F - 57.2 °F 47% 29.78 in 10.0 mi NNW 16.1 mph - N/A   Partly Cloudy
8:55 PM 77.0 °F - 57.2 °F 50% 29.79 in 10.0 mi NNW 9.2 mph - N/A   Clear
9:15 PM 77.0 °F - 57.2 °F 50% 29.79 in 10.0 mi NNW 9.2 mph - N/A   Clear
9:35 PM 75.2 °F - 57.2 °F 53% 29.79 in 10.0 mi NNW 9.2 mph - N/A   Clear
9:55 PM 73.4 °F - 57.2 °F 57% 29.79 in 10.0 mi NNW 9.2 mph - N/A   Clear
10:15 PM 71.6 °F - 59.0 °F 64% 29.79 in 10.0 mi NNW 8.1 mph - N/A   Clear
10:35 PM 71.6 °F - 59.0 °F 64% 29.80 in 10.0 mi NNW 9.2 mph - N/A   Clear
10:55 PM 71.6 °F - 59.0 °F 64% 29.80 in 10.0 mi NW 6.9 mph - N/A   Clear
11:15 PM 71.6 °F - 59.0 °F 64% 29.80 in 10.0 mi NNW 8.1 mph - N/A   Clear
11:35 PM 71.6 °F - 59.0 °F 64% 29.79 in 10.0 mi NNW 10.4 mph - N/A   Clear
11:55 PM 71.6 °F - 59.0 °F 64% 29.79 in 10.0 mi NW 9.2 mph - N/A   Clear